sat.trackr.live / text

‹ back to catalog

STARLINK-2400

NORAD 47817 · 2021-018AG

PAYLOAD ACTIVE UNKNOWN

§ Identity

Operator
Country
US
Launch date
2021-03-11
Launch site
AFETR
Launch vehicle
Mass (kg)
RCS (m²)

Purposes: comms

External: N2YO · Heavens-Above · Gunter

§ Orbital elements

Epoch: 2026-09-20T03:47:07.996416Z

Period
94.01 min
Inclination
53.1605°
Eccentricity
0.0001139
Mean motion
15.31702002 rev/d
Perigee alt
470.0 km
Apogee alt
471.5 km
Semi-major
6,848.9 km
B*
-6.0783e-7
RAAN
58.1088°
Arg perigee
89.3107°
Mean anomaly
270.8025°
Rev number
30,651

§ Raw data

STARLINK-24001 47817U 21018AG  26263.15773144 -.00000384  00000+0 -60783-6 0  99962 47817  53.1605  58.1088 0001139  89.3107 270.8025 15.31702002306511

JSON: /api/v1/satellites/47817 · /tle

For live sub-satellite position, see the globe view (requires WebGL).

§ Visibility from observer

Set your observer location to see the next 7 days of passes ≥ 10°. The values pass through the URL so the page stays shareable.

No JS? Fill the form by hand. The geolocation button needs JavaScript.